Regional Weather Roundup
Issued by NWS Little Rock, AR

Home | Current Version | Previous Version | Graphics & Text | Print | Product List | Glossary On
Versions: 1 2 3 4 5 6 7 8 9 10 11 12 13 14 15 16 17 18 19 20 21 22 23 24 25 26 27 28 29 30 31 32 33 34 35 36 37 38 39 40 41 42 43 44 45 46 47 48 49 50
007
ASUS44 KLZK 302105
RWRLZK

WEATHER ROUNDUP FOR ARKANSAS
NATIONAL WEATHER SERVICE LITTLE ROCK AR
400 PM CDT MON MAY 30 2016

NOTE: "FAIR" INDICATES FEW OR NO CLOUDS BELOW 12,000 FEET WITH NO
SIGNIFICANT WEATHER AND/OR OBSTRUCTIONS TO VISIBILITY.

ARZ001-003-010-029-302200-
NORTHWEST ARKANSAS

CITY           SKY/WX    TMP DP  RH WIND       PRES   REMARKS
FAYETTEVILLE   LGT RAIN  67  67 100 E5        30.03F
FORT SMITH     CLOUDY    71  66  84 NW6       30.01S THUNDER
HARRISON       CLOUDY    71  66  84 N5        30.04F
BENTONVILLE    CLOUDY    70  61  73 SE5       30.05F
ROGERS         LGT RAIN  70  64  81 SE9       30.06F
SILOAM SPGS    CLOUDY    68  59  73 E5        30.04F
HIGHFILL       CLOUDY    70  65  84 E7        30.03F
SPRINGDALE     LGT RAIN  68  66  94 NE6       30.06F FOG
$$

ARZ004-005-016-302200-
NORTH CENTRAL ARKANSAS

CITY           SKY/WX    TMP DP  RH WIND       PRES   REMARKS
BATESVILLE     CLOUDY    73  66  78 NW6       30.02F
FLIPPIN        CLOUDY   N/A N/A N/A CALM      30.01S
MTN HOME       CLOUDY    73  65  75 N3        30.01F
$$

ARZ040-041-302200-
WEST CENTRAL ARKANSAS

CITY           SKY/WX    TMP DP  RH WIND       PRES   REMARKS
MENA           CLOUDY    77  70  78 E7        30.01F
MOUNT IDA      CLOUDY    78  67  68 CALM      29.99F
$$

ARZ009-017-025-026-028-302200-
NORTHEAST ARKANSAS

CITY           SKY/WX    TMP DP  RH WIND       PRES   REMARKS
CORNING        LGT RAIN  84  64  51 SE7       30.00F HX  86
JONESBORO        N/A     87  63  44 E7        29.99F HX  88
NEWPORT        PTSUNNY   86  65  49 SE5       30.00F HX  88
WALNUT RIDGE   CLOUDY    84  63  48 SE5       29.99F HX  85
BLYTHEVILLE    MOSUNNY   88  60  38 SE5       29.99F HX  87
$$

ARZ022-023-033-042-044-302200-
CENTRAL ARKANSAS

CITY           SKY/WX    TMP DP  RH WIND       PRES   REMARKS
LITTLE ROCK    CLOUDY    83  68  60 S6        29.98F HX  86
N LITTLE ROCK    N/A     81  69  66 CALM      29.97F
JACKSONVILLE   LGT RAIN  82  72  69 E10       29.99F HX  87
SEARCY         CLOUDY    88  66  48 SE3       30.00F HX  90
HOT SPRINGS    CLOUDY    83  69  62 NW3       29.99F THUNDER HX  86
RUSSELLVILLE   CLOUDY    76  68  76 CALM      30.00F
CLINTON        FAIR      81  66  61 CALM      30.01F
$$

ARZ036-302200-
EAST ARKANSAS

CITY           SKY/WX    TMP DP  RH WIND       PRES   REMARKS
WEST MEMPHIS   MOSUNNY   88  61  40 N5        29.97F HX  88
$$

ARZ050-053-066-070-073-302200-
SOUTHWEST ARKANSAS

CITY           SKY/WX    TMP DP  RH WIND       PRES   REMARKS
ARKADELPHIA    FAIR      82  73  74 CALM      29.97F HX  87
CAMDEN         CLOUDY    84  64  51 S6        29.96F HX  86
TEXARKANA      CLOUDY    79  66  64 E5        29.96F
EL DORADO      LGT RAIN  67  64  90 NE6       29.99F FOG
DE QUEEN       CLOUDY    81  72  74 E6        29.95F HX  85
$$

ARZ056-057-069-302200-
SOUTHEAST ARKANSAS

CITY           SKY/WX    TMP DP  RH WIND       PRES   REMARKS
PINE BLUFF     CLOUDY    85  70  60 E5        29.97F HX  89
STUTTGART      CLOUDY    86  64  48 S6        29.99F HX  87
MONTICELLO     CLOUDY    88  68  51 E5        29.96F HX  91

$$






USA.gov is the U.S. government's official web portal to all federal, state and local government web resources and services.